Wind_Speed
94 92 102 101 97 96 93 89 87 84 81 73 72 73 74 70 60 58 54 51 48 45 45 41 37 35 39 37 37 39 38 36 33 34 37 38 38 37 39 45 40 41 43
99 100 97 107 107 104 105 99 94 90 86 79 72 77 79 76 66 59 54 54 54 51 46 44 42 43 42 40 40 39 33 30 26 31 35 35 38 39 42 45 42 42 44
112 118 116 114 116 111 115 110 100 95 90 87 81 81 80 77 70 66 64 62 58 56 52 47 45 42 42 42 41 38 35 40 34 33 32 34 40 45 47 46 40 43 47
106 111 114 115 131 116 116 109 111 104 100 93 86 81 83 79 76 75 71 65 63 61 58 53 46 47 46 41 37 36 33 37 37 41 41 39 41 39 40 34 39 47 50
89 89 89 92 103 114 123 105 101 107 105 93 89 82 84 83 80 75 73 71 67 64 61 57 51 49 43 37 43 44 48 40 44 45 45 41 36 35 35 34 44 49 52
68 71 71 73 81 92 117 119 117 114 102 89 92 84 81 85 83 78 76 76 70 66 64 58 50 44 30 36 45 39 41 40 42 43 44 39 39 42 38 40 46 52 53
60 57 54 56 66 81 94 117 102 111 109 93 89 85 79 80 82 81 79 78 75 72 67 58 51 40 38 59 59 57 50 36 37 44 52 56 52 50 45 46 48 51 55
49 48 43 45 58 69 79 88 92 102 112 105 98 89 82 76 81 75 78 74 73 71 68 60 57 55 56 54 60 58 60 48 43 45 55 57 54 55 52 52 52 53 52
39 38 34 36 47 56 63 68 79 91 101 102 97 91 62 95 89 79 79 79 73 70 67 68 63 64 64 63 61 63 62 53 47 49 57 59 59 57 58 56 58 57 52
23 23 20 25 36 42 48 55 65 86 97 97 88 94 90 93 88 88 83 81 81 77 72 72 70 66 65 66 65 60 60 57 57 58 59 61 63 59 58 62 59 59 49
9 8 14 22 29 34 41 52 68 82 90 94 91 90 87 89 88 86 84 84 77 76 75 75 71 69 71 72 69 63 63 62 62 65 63 67 66 66 65 66 65 63 54
10 7 10 17 17 28 36 46 56 79 83 89 87 84 83 86 86 88 83 80 80 81 77 75 70 70 70 70 74 69 65 65 65 68 72 69 74 72 72 70 67 64 61
19 15 12 13 19 26 31 39 49 77 72 83 84 88 86 87 87 88 86 86 82 88 82 78 77 77 78 73 75 73 70 70 71 73 73 74 76 77 76 71 70 70 65
28 22 22 17 15 20 29 34 43 57 87 91 81 81 80 90 93 89 88 86 84 84 82 79 74 77 79 78 80 75 73 76 78 76 75 77 78 78 78 74 74 74 63
34 32 26 24 17 13 14 30 33 42 63 86 83 75 74 74 78 81 78 78 83 88 80 83 79 79 78 83 83 79 78 79 80 79 80 82 83 78 78 77 75 71 65
40 38 32 29 23 28 29 27 27 28 37 56 79 90 90 83 85 91 89 80 82 82 85 86 83 79 79 84 87 83 82 79 81 82 81 83 87 85 83 79 75 71 70
43 42 44 39 41 44 41 38 45 42 34 41 56 52 57 62 70 69 66 78 78 80 82 83 83 81 80 81 83 86 86 84 82 81 81 84 83 84 83 78 73 73 69
46 48 49 47 47 45 47 54 52 56 52 62 58 53 59 60 63 68 76 82 77 78 81 82 85 83 87 86 87 90 91 93 91 88 86 85 84 82 80 76 72 70 68
54 55 53 57 54 53 59 66 59 55 65 65 68 64 72 72 75 74 80 87 81 76 76 78 80 79 80 81 83 84 86 88 88 89 89 86 82 80 78 74 68 65 59
54 60 62 63 64 63 63 58 58 59 62 71 82 78 76 80 85 83 82 84 84 81 79 76 79 77 75 77 77 75 78 80 81 83 80 79 78 76 74 68 59 55 57
52 57 65 70 70 72 70 70 70 71 70 71 72 72 76 80 87 87 87 85 83 81 80 78 73 69 72 72 69 68 69 69 69 71 71 71 69 69 64 58 56 55 54
57 55 56 59 71 78 76 76 82 80 78 78 75 77 77 76 80 82 77 70 69 73 76 75 74 69 64 64 62 61 61 58 61 61 61 63 62 62 59 59 54 58 59
56 58 62 63 63 64 71 73 83 85 86 81 82 78 75 77 76 76 74 71 70 65 65 65 63 61 64 61 58 58 55 53 52 58 56 58 60 61 60 62 56 62 60
60 62 59 66 68 68 69 69 72 78 79 86 87 82 79 79 78 79 79 74 69 67 64 62 61 62 66 61 59 55 54 50 50 53 58 58 58 59 62 61 61 59 59
67 64 66 66 66 71 71 73 72 72 75 79 81 80 79 78 76 74 74 73 73 75 71 65 65 69 71 67 66 60 60 53 51 53 53 61 63 60 61 61 59 59 63
62 67 69 69 73 75 76 75 77 80 82 78 76 77 76 77 78 77 74 74 71 71 71 70 67 67 74 77 73 71 67 61 57 54 54 54 59 64 66 65 66 70 69
Wind_Direction
259 255 253 250 248 248 247 247 251 250 244 242 245 252 255 250 247 248 251 253 255 258 260 263 267 273 277 280 280 283 289 299 291 280 284 283 288 297 304 311 310 321 329
256 251 245 247 247 246 248 246 248 246 245 242 239 246 248 251 249 248 249 250 250 253 257 265 268 274 274 278 279 277 290 293 296 293 290 283 289 294 300 305 306 319 326
260 258 252 239 241 246 249 247 244 245 245 244 237 239 245 249 252 249 247 246 249 255 258 262 267 268 275 279 281 292 296 293 287 297 290 285 286 291 296 299 303 317 322
265 263 261 257 250 248 243 251 247 244 245 246 239 236 242 246 245 247 248 250 253 256 259 263 260 268 272 275 276 281 284 290 285 290 296 289 295 291 292 295 303 316 319
268 264 261 257 253 249 246 255 253 247 244 243 243 238 238 242 243 246 248 249 251 256 261 262 261 264 267 275 277 276 271 277 286 288 294 288 291 290 288 291 310 313 315
269 262 258 251 249 242 242 246 244 242 244 240 241 237 233 241 243 243 246 248 252 256 260 258 257 259 250 255 271 258 255 260 267 278 279 274 283 287 286 298 310 313 313
271 264 256 247 240 235 234 235 240 242 239 235 231 235 231 237 241 242 245 248 249 251 255 255 250 238 242 259 253 259 259 248 262 266 271 273 276 284 281 294 303 308 312
274 270 261 246 236 235 229 231 232 234 236 236 233 233 242 241 240 240 238 245 247 250 253 251 248 242 247 245 251 255 247 249 257 257 262 267 272 277 277 285 297 307 308
271 270 255 240 231 231 229 227 225 229 231 234 231 232 211 231 237 238 240 240 244 245 249 252 249 247 247 244 242 247 247 248 243 255 256 262 274 274 274 280 291 300 304
250 254 242 233 224 225 219 222 223 226 226 229 227 230 227 230 233 236 240 243 246 250 250 250 250 251 250 243 238 244 250 242 247 249 253 260 268 268 271 282 286 295 296
207 207 199 208 211 209 211 214 219 224 227 225 220 228 226 230 234 238 240 244 247 248 250 251 249 251 254 246 242 236 244 244 244 249 253 255 265 268 275 279 289 293 292
109 129 167 182 201 203 203 209 212 220 225 226 226 228 231 232 236 238 239 241 247 252 251 249 248 251 248 248 244 239 237 241 241 247 251 257 262 269 275 279 284 287 289
120 114 142 181 185 194 200 215 213 216 217 228 233 234 232 236 239 242 242 245 249 249 249 246 246 248 252 252 245 243 238 238 241 246 252 256 262 265 270 275 280 284 286
128 119 130 126 159 187 196 202 211 212 219 223 234 236 237 241 240 242 245 245 250 250 251 250 242 246 248 251 245 242 239 239 242 248 255 259 263 266 268 271 275 278 279
156 161 146 145 153 167 190 201 199 211 217 221 225 224 229 240 244 247 247 254 247 247 246 247 248 250 249 247 247 247 241 241 243 248 251 254 257 261 266 268 272 276 275
170 166 167 173 173 165 196 189 182 213 207 219 229 234 237 242 247 250 253 248 245 245 245 248 249 249 247 246 248 250 249 247 245 246 251 253 255 260 262 266 270 271 272
177 178 178 178 175 186 204 195 188 208 214 199 208 223 224 233 238 241 244 243 242 244 247 248 249 248 246 249 249 249 251 249 248 249 252 253 255 258 261 264 265 268 268
191 190 187 184 192 199 203 200 201 203 212 206 217 215 222 223 226 231 233 236 245 246 246 249 249 248 248 252 250 252 251 251 250 251 253 255 256 258 259 261 263 265 265
199 196 194 196 198 202 207 203 215 215 213 220 223 224 223 228 229 234 238 238 247 251 251 250 251 252 254 255 254 251 251 251 250 251 252 253 255 257 258 260 263 265 260
203 203 198 200 201 203 210 217 222 225 227 224 227 231 232 229 234 234 239 245 249 255 256 255 255 255 255 258 259 257 254 251 250 249 248 249 250 253 255 258 256 256 255
204 205 208 208 209 209 215 219 224 228 233 238 236 234 237 235 237 238 243 248 252 257 258 259 259 260 260 259 260 259 258 255 253 251 251 250 250 250 251 250 249 249 249
216 211 212 211 214 218 220 225 226 229 234 239 239 242 243 242 240 245 247 251 255 258 259 260 260 258 255 256 257 257 257 256 251 249 248 245 244 243 240 241 246 248 251
231 230 223 222 220 222 224 224 225 231 237 238 241 244 244 244 246 248 246 248 253 258 259 257 254 249 251 256 255 255 255 252 250 244 242 241 236 237 238 244 250 254 255
241 240 240 235 232 234 233 233 234 235 236 239 242 244 246 248 248 249 250 250 255 258 258 258 257 249 248 251 254 252 250 251 248 244 239 239 238 237 238 243 246 251 253
245 248 245 243 243 240 241 242 245 245 244 244 246 251 253 251 255 258 256 258 256 256 255 255 257 253 250 249 247 249 245 243 245 245 240 237 238 234 237 240 242 246 253
244 248 251 250 248 248 249 249 250 250 249 252 254 255 258 259 260 263 265 262 259 256 252 252 250 250 252 249 245 242 241 239 237 236 237 236 236 235 239 241 245 246 254
Height
10567 10568 10562 10569 10574 10574 10581 10592 10598 10610 10615 10627 10636 10638 10642 10647 10659 10664 10671 10676 10678 10679 10682 10685 10689 10692 10691 10693 10693 10692 10691 10689 10688 10686 10686 10685 10684 10684 10682 10680 10676 10674 10670
10534 10533 10538 10535 10546 10549 10550 10564 10577 10582 10594 10607 10622 10620 10621 10629 10645 10654 10660 10663 10664 10668 10672 10676 10680 10682 10683 10684 10684 10684 10683 10683 10681 10679 10678 10677 10676 10676 10676 10673 10669 10666 10662
10498 10493 10494 10502 10510 10519 10524 10535 10550 10562 10574 10585 10597 10603 10605 10616 10633 10640 10641 10645 10652 10658 10662 10666 10670 10672 10673 10674 10673 10674 10675 10675 10673 10671 10670 10668 10668 10668 10667 10665 10663 10659 10656
10458 10459 10460 10472 10467 10493 10495 10507 10525 10539 10550 10560 10575 10590 10596 10602 10612 10618 10626 10634 10640 10645 10650 10655 10660 10662 10663 10664 10663 10664 10665 10666 10665 10663 10662 10660 10658 10658 10657 10657 10654 10651 10649
10419 10421 10424 10435 10435 10463 10466 10484 10497 10511 10524 10542 10553 10571 10582 10586 10593 10605 10614 10618 10625 10632 10638 10643 10648 10651 10655 10656 10656 10654 10656 10658 10658 10657 10655 10653 10650 10650 10651 10648 10647 10644 10641
10393 10389 10394 10404 10412 10427 10437 10458 10469 10480 10506 10531 10537 10552 10568 10568 10581 10591 10597 10603 10612 10620 10624 10629 10635 10642 10645 10647 10648 10642 10644 10646 10650 10651 10650 10645 10644 10641 10642 10641 10638 10635 10632
10370 10369 10374 10381 10388 10395 10411 10422 10450 10470 10489 10510 10521 10535 10549 10559 10564 10576 10584 10590 10597 10603 10609 10616 10624 10629 10622 10626 10628 10631 10635 10635 10639 10642 10639 10638 10636 10635 10633 10632 10630 10627 10624
10354 10354 10358 10363 10368 10375 10389 10406 10432 10452 10470 10489 10504 10522 10539 10551 10551 10560 10569 10571 10581 10587 10592 10599 10606 10610 10607 10611 10618 10620 10624 10626 10627 10629 10627 10627 10626 10626 10624 10622 10623 10619 10617
10346 10345 10347 10350 10356 10364 10380 10400 10419 10434 10454 10474 10493 10511 10534 10530 10540 10541 10545 10558 10564 10571 10577 10582 10586 10590 10593 10598 10603 10606 10610 10613 10614 10614 10614 10616 10616 10615 10615 10613 10614 10612 10609
10341 10339 10342 10345 10349 10359 10374 10391 10408 10422 10440 10461 10483 10492 10510 10517 10518 10523 10533 10540 10548 10555 10560 10563 10566 10571 10576 10579 10586 10591 10595 10599 10600 10599 10601 10601 10601 10604 10604 10604 10604 10603 10601
10338 10339 10338 10342 10349 10358 10370 10386 10400 10414 10432 10451 10469 10477 10489 10497 10504 10510 10520 10527 10533 10537 10543 10547 10550 10555 10558 10561 10567 10575 10578 10583 10584 10586 10586 10590 10590 10591 10591 10593 10593 10593 10592
10338 10341 10341 10346 10351 10360 10370 10381 10395 10411 10422 10437 10449 10461 10474 10484 10490 10495 10501 10509 10515 10519 10526 10528 10534 10539 10542 10544 10550 10557 10563 10567 10569 10570 10573 10577 10578 10579 10578 10579 10581 10583 10583
10339 10343 10346 10349 10354 10359 10369 10378 10389 10403 10423 10426 10437 10452 10461 10469 10474 10477 10486 10492 10499 10499 10505 10510 10516 10520 10524 10529 10533 10540 10547 10551 10553 10555 10559 10562 10564 10567 10567 10567 10568 10571 10572
10336 10343 10345 10350 10355 10361 10367 10374 10383 10396 10410 10418 10427 10437 10446 10448 10457 10463 10468 10475 10481 10483 10490 10493 10499 10504 10506 10510 10515 10522 10527 10532 10536 10540 10544 10547 10548 10551 10552 10555 10556 10557 10560
10330 10335 10340 10345 10351 10358 10364 10372 10379 10389 10398 10407 10414 10422 10430 10434 10440 10448 10452 10459 10463 10466 10472 10475 10480 10485 10490 10492 10495 10501 10510 10514 10519 10521 10527 10530 10532 10534 10536 10539 10541 10544 10544
10328 10332 10337 10343 10351 10354 10361 10368 10374 10381 10390 10398 10408 10413 10419 10424 10429 10435 10437 10442 10445 10450 10454 10457 10463 10469 10473 10477 10479 10483 10490 10495 10500 10504 10507 10512 10514 10517 10520 10523 10526 10528 10528
10328 10331 10333 10340 10346 10355 10361 10365 10368 10377 10382 10388 10396 10401 10408 10413 10418 10421 10422 10423 10429 10433 10438 10443 10447 10453 10457 10459 10460 10465 10470 10475 10480 10484 10488 10491 10495 10497 10501 10505 10508 10510 10513
10324 10327 10330 10334 10341 10348 10352 10358 10361 10367 10373 10377 10383 10390 10394 10396 10400 10404 10405 10406 10412 10415 10420 10424 10429 10435 10438 10440 10442 10444 10448 10453 10458 10462 10466 10470 10475 10479 10482 10485 10490 10492 10494
10314 10320 10325 10329 10333 10338 10343 10346 10350 10358 10362 10366 10371 10375 10379 10382 10382 10388 10389 10391 10394 10398 10402 10406 10410 10416 10419 10421 10422 10423 10425 10430 10436 10441 10445 10451 10456 10458 10462 10468 10472 10473 10476
10307 10311 10315 10320 10323 10327 10332 10338 10343 10346 10349 10354 10357 10360 10364 10367 10365 10371 10372 10374 10378 10381 10384 10390 10392 10398 10400 10399 10399 10402 10404 10409 10414 10419 10424 10428 10435 10438 10443 10450 10455 10458 10459
10298 10302 10307 10310 10315 10318 10321 10327 10330 10333 10335 10338 10340 10343 10347 10350 10352 10355 10358 10360 10361 10364 10366 10369 10373 10376 10378 10379 10381 10383 10384 10388 10393 10398 10402 10407 10413 10419 10426 10433 10438 10441 10442
10290 10292 10296 10298 10304 10309 10312 10315 10316 10317 10320 10321 10323 10326 10329 10333 10336 10338 10342 10344 10345 10347 10349 10352 10356 10357 10358 10359 10362 10364 10366 10369 10374 10378 10383 10389 10396 10402 10409 10417 10421 10424 10427
10280 10282 10284 10286 10289 10292 10294 10296 10299 10301 10304 10305 10306 10309 10312 10315 10318 10320 10322 10324 10327 10329 10331 10333 10336 10338 10340 10343 10346 10348 10350 10353 10357 10361 10366 10372 10379 10385 10393 10400 10406 10404 10410
10267 10270 10272 10274 10276 10278 10280 10282 10285 10285 10286 10288 10289 10291 10294 10296 10298 10301 10303 10307 10309 10311 10312 10314 10316 10320 10323 10327 10329 10332 10335 10337 10342 10345 10351 10357 10363 10369 10375 10382 10388 10390 10393
10248 10251 10255 10257 10259 10260 10262 10264 10265 10267 10269 10270 10272 10273 10274 10276 10278 10280 10282 10285 10287 10291 10292 10293 10295 10300 10303 10307 10312 10314 10318 10320 10326 10330 10334 10339 10346 10352 10359 10365 10371 10373 10374
10229 10233 10234 10236 10238 10240 10242 10243 10244 10245 10246 10248 10250 10252 10253 10255 10256 10258 10259 10262 10264 10266 10268 10269 10273 10276 10281 10284 10287 10293 10296 10303 10307 10313 10318 10323 10329 10336 10342 10347 10353 10357 10359